Weather History for KGFA - August, 2013

Change the Weather History Date:

Thursday, August 8, 2013

  Actual Average (KGTF) Record (KGTF)
Temperature  
Mean Temperature 66 °F 68 °F  
Max Temperature 78 °F 85 °F 102 °F (2012)
Min Temperature 55 °F 52 °F 41 °F (1917)
Degree Days  
Heating Degree Days 0 1  
Month to date heating degree days 8  
Since 1 June heating degree days 249  
Since 1 July heating degree days 58  
Cooling Degree Days 2 5  
Month to date cooling degree days 40  
Year to date cooling degree days 203  
Since 1 June cooling degree days 196  
Growing Degree Days 16 (Base 50)    
Moisture  
Dew Point 51 °F    
Average Humidity 60    
Maximum Humidity 86    
Minimum Humidity 36    
Precipitation  
Precipitation 0.00 in 0.04 in 1.02 in (1974)
Month to date precipitation 0.33  
Year to date precipitation 10.09  
Snow  
Snow 0.00 in 0.00 in 0.00 in (2002)
Month to date snowfall 0.0  
Since 1 June snowfall 0.3  
Since 1 July snowfall 0.0  
Snow Depth -    
Sea Level Pressure  
Sea Level Pressure 30.10 in    
Wind  
Wind Speed 7 mph (North)    
Max Wind Speed 18 mph    
Max Gust Speed 24 mph    
Visibility 10 miles    
Events      
T = Trace of Precipitation, MM = Missing Value Source: NWS Daily Summary

Daily Weather History Graph

Daily Weather History Graph

Search for Another Location

Airport or City:

Trip Planner

Search our weather history database for the weather conditions in past years. The results will help you decide how hot, cold, wet, or windy it might be!

Date:

Astronomy

Aug. 08, 2013 Rise Set
Actual Time 6:11 AM MDT 8:47 PM MDT
Civil Twilight 5:37 AM MDT 9:22 PM MDT
Nautical Twilight 4:53 AM MDT 10:06 PM MDT
Astronomical Twilight 4:01 AM MDT 10:56 PM MDT
Moon 8:14 AM MDT (8/8) 9:13 PM MDT (8/8)
Length of Visible Light 15h 45m
Length of Day
14h 35m
Waxing Crescent, 3% of the Moon is Illuminated
Aug 8
Waxing Crescent
Aug 14
First Quarter
Aug 20
Full
Aug 28
Last Quarter
Sep 5
New

Hourly Weather History & Observations

Time (MDT) Temp. Dew Point Humidity Pressure Visibility Wind Dir Wind Speed Gust Speed Precip Events Conditions
12:56 AM 60.1 °F 50.0 °F 69% 30.03 in 10.0 mi North 4.6 mph - N/A   Clear
1:56 AM 60.1 °F 52.0 °F 75% 30.04 in 10.0 mi North 5.8 mph - N/A   Mostly Cloudy
2:56 AM 57.9 °F 52.0 °F 81% 30.05 in 10.0 mi North 9.2 mph - N/A   Scattered Clouds
3:56 AM 57.9 °F 52.0 °F 81% 30.05 in 10.0 mi NNW 3.5 mph - N/A   Clear
4:56 AM 55.0 °F 51.1 °F 86% 30.07 in 10.0 mi NNE 3.5 mph - N/A   Clear
5:56 AM 55.0 °F 51.1 °F 86% 30.09 in 10.0 mi SW 4.6 mph - N/A   Clear
6:56 AM 55.9 °F 51.1 °F 84% 30.10 in 10.0 mi West 3.5 mph - N/A   Clear
7:56 AM 57.9 °F 52.0 °F 81% 30.11 in 10.0 mi West 3.5 mph - N/A   Clear
8:56 AM 61.0 °F 52.0 °F 72% 30.11 in 10.0 mi WNW 4.6 mph - N/A   Clear
9:56 AM 64.0 °F 52.0 °F 65% 30.12 in 10.0 mi WSW 3.5 mph - N/A   Clear
10:56 AM 69.1 °F 53.1 °F 57% 30.12 in 10.0 mi North 5.8 mph - N/A   Clear
11:56 AM 72.0 °F 52.0 °F 49% 30.11 in 10.0 mi NE 9.2 mph - N/A   Clear
12:56 PM 73.9 °F 52.0 °F 46% 30.11 in 10.0 mi NNE 10.4 mph 19.6 mph N/A   Clear
1:56 PM 75.9 °F 51.1 °F 42% 30.10 in 10.0 mi NNE 10.4 mph - N/A   Clear
2:56 PM 77.0 °F 50.0 °F 39% 30.09 in 10.0 mi NNE 8.1 mph 17.3 mph N/A   Partly Cloudy
3:56 PM 78.1 °F 48.9 °F 36% 30.07 in 10.0 mi NNE 9.2 mph 17.3 mph N/A   Clear
4:56 PM 78.1 °F 48.9 °F 36% 30.08 in 10.0 mi North 9.2 mph - N/A   Clear
5:56 PM 77.0 °F 48.9 °F 37% 30.09 in 10.0 mi NNE 18.4 mph - N/A   Clear
6:56 PM 73.9 °F 46.9 °F 38% 30.11 in 10.0 mi NNE 16.1 mph - N/A   Clear
7:56 PM 70.0 °F 50.0 °F 49% 30.12 in 10.0 mi NNE 16.1 mph 24.2 mph N/A   Clear
8:56 PM 66.9 °F 50.0 °F 54% 30.14 in 10.0 mi NNE 10.4 mph - N/A   Scattered Clouds
9:56 PM 66.0 °F 50.0 °F 56% 30.16 in 10.0 mi NE 10.4 mph - N/A   Overcast
10:56 PM 62.1 °F 48.9 °F 62% 30.16 in 10.0 mi NNE 9.2 mph - N/A   Clear
11:56 PM 61.0 °F 48.9 °F 64% 30.17 in 10.0 mi NNE 8.1 mph - N/A   Partly Cloudy